GFSMW_prec_pwat_216.txt.gz
Precipitable_Water
0.67 0.75 0.80 0.89 0.95 1.09 1.21 1.28 1.32 1.34 1.32 1.27 1.22 1.18 1.15 1.13 1.10 1.19 1.22 1.21 1.50 1.38 1.24 1.17 1.23 1.31 1.29 1.28 1.27 1.23 1.11 1.07 1.07 1.02 1.06 1.04 1.04 0.98 0.93 0.85 0.80 0.78 0.77
0.65 0.72 0.80 0.88 0.92 1.02 1.14 1.21 1.22 1.26 1.21 1.11 1.02 1.03 1.05 1.01 1.05 1.09 1.08 1.13 1.12 1.10 1.06 1.05 1.00 1.04 1.10 1.14 1.17 1.16 1.10 1.07 1.07 0.94 0.98 0.85 0.86 0.90 0.91 0.90 0.84 0.81 0.78
0.59 0.66 0.74 0.83 0.91 0.92 0.97 1.02 1.05 0.98 0.94 0.88 0.87 0.85 0.89 0.90 0.87 0.90 0.95 0.98 1.03 1.07 1.01 1.01 0.98 1.00 1.04 1.01 1.03 1.05 1.01 0.98 1.02 1.13 0.97 0.76 0.68 0.83 0.86 0.86 0.84 0.88 0.81
0.69 0.72 0.74 0.78 0.83 0.88 0.97 0.97 0.95 0.89 0.81 0.77 0.72 0.69 0.64 0.61 0.69 0.76 0.82 0.85 0.90 0.94 0.98 0.99 1.00 0.98 1.02 0.98 0.95 1.04 0.97 0.95 0.93 1.02 0.98 1.00 0.90 0.78 0.72 0.80 0.82 0.88 0.85
0.71 0.71 0.70 0.69 0.71 0.72 0.70 0.68 0.65 0.65 0.69 0.70 0.68 0.65 0.63 0.64 0.65 0.66 0.68 0.73 0.78 0.84 0.90 0.90 0.95 0.87 0.85 0.91 0.88 0.92 0.89 0.91 0.90 0.91 0.92 0.93 0.92 0.84 0.72 0.67 0.71 0.77 0.79
0.70 0.74 0.77 0.72 0.62 0.63 0.62 0.62 0.62 0.65 0.70 0.71 0.70 0.65 0.62 0.58 0.54 0.56 0.57 0.64 0.70 0.73 0.72 0.75 0.81 0.85 0.83 0.88 0.96 0.97 0.95 0.96 0.95 0.92 0.89 0.90 0.82 0.77 0.75 0.67 0.68 0.69 0.73
0.67 0.68 0.66 0.64 0.62 0.62 0.65 0.65 0.64 0.65 0.71 0.73 0.72 0.67 0.63 0.62 0.57 0.54 0.55 0.57 0.60 0.61 0.68 0.74 0.77 0.81 0.84 0.83 0.87 0.84 0.94 0.98 0.91 0.92 0.94 0.92 0.90 0.89 0.81 0.75 0.68 0.67 0.72
0.66 0.66 0.66 0.65 0.66 0.64 0.62 0.63 0.68 0.70 0.71 0.68 0.62 0.61 0.64 0.65 0.61 0.61 0.68 0.69 0.67 0.71 0.73 0.73 0.74 0.77 0.82 0.87 0.85 0.82 0.82 0.83 0.86 0.88 0.89 0.92 0.90 0.87 0.81 0.73 0.68 0.62 0.65
0.68 0.68 0.70 0.67 0.59 0.56 0.56 0.59 0.59 0.60 0.60 0.58 0.58 0.60 0.68 0.69 0.63 0.69 0.78 0.78 0.75 0.75 0.72 0.71 0.73 0.76 0.78 0.78 0.80 0.79 0.79 0.79 0.81 0.83 0.86 0.88 0.89 0.84 0.79 0.77 0.74 0.68 0.58
0.62 0.60 0.56 0.55 0.54 0.55 0.55 0.55 0.56 0.54 0.53 0.52 0.55 0.58 0.62 0.65 0.66 0.71 0.77 0.75 0.74 0.76 0.76 0.73 0.72 0.70 0.71 0.72 0.75 0.75 0.78 0.78 0.81 0.81 0.82 0.84 0.84 0.83 0.82 0.79 0.77 0.74 0.67
0.56 0.54 0.54 0.54 0.54 0.55 0.53 0.54 0.55 0.54 0.53 0.54 0.53 0.54 0.55 0.58 0.63 0.68 0.75 0.70 0.72 0.76 0.75 0.71 0.68 0.66 0.70 0.73 0.73 0.73 0.76 0.76 0.75 0.77 0.77 0.76 0.81 0.79 0.78 0.78 0.76 0.72 0.70
0.55 0.55 0.55 0.55 0.54 0.54 0.54 0.54 0.54 0.55 0.55 0.54 0.54 0.53 0.55 0.57 0.58 0.62 0.69 0.72 0.72 0.77 0.77 0.71 0.67 0.67 0.67 0.71 0.72 0.71 0.72 0.70 0.70 0.72 0.72 0.72 0.75 0.74 0.77 0.75 0.73 0.71 0.70
0.55 0.55 0.53 0.53 0.54 0.55 0.55 0.55 0.57 0.56 0.55 0.52 0.52 0.53 0.56 0.58 0.57 0.61 0.65 0.71 0.71 0.74 0.76 0.73 0.67 0.65 0.67 0.72 0.74 0.73 0.71 0.70 0.70 0.69 0.68 0.68 0.69 0.69 0.71 0.72 0.72 0.71 0.69
0.54 0.52 0.53 0.54 0.56 0.57 0.57 0.56 0.54 0.54 0.50 0.49 0.51 0.52 0.52 0.54 0.56 0.58 0.61 0.65 0.66 0.67 0.69 0.67 0.67 0.66 0.69 0.74 0.74 0.72 0.70 0.69 0.69 0.68 0.68 0.68 0.67 0.67 0.69 0.70 0.71 0.72 0.67
0.54 0.55 0.54 0.55 0.55 0.54 0.53 0.51 0.49 0.48 0.47 0.45 0.50 0.52 0.48 0.52 0.58 0.58 0.62 0.65 0.65 0.66 0.67 0.66 0.64 0.65 0.68 0.74 0.73 0.72 0.69 0.66 0.66 0.66 0.66 0.68 0.70 0.70 0.71 0.70 0.68 0.68 0.65
0.57 0.56 0.54 0.53 0.52 0.50 0.47 0.45 0.45 0.45 0.45 0.45 0.46 0.49 0.52 0.54 0.55 0.59 0.63 0.63 0.66 0.67 0.65 0.64 0.64 0.63 0.64 0.71 0.75 0.72 0.69 0.64 0.62 0.62 0.64 0.65 0.67 0.67 0.69 0.70 0.70 0.68 0.63
0.53 0.52 0.50 0.48 0.46 0.44 0.43 0.39 0.35 0.37 0.40 0.42 0.45 0.53 0.61 0.60 0.56 0.58 0.62 0.61 0.60 0.65 0.61 0.59 0.59 0.60 0.62 0.65 0.71 0.72 0.69 0.63 0.58 0.56 0.60 0.63 0.65 0.66 0.66 0.66 0.66 0.63 0.59
0.51 0.49 0.48 0.47 0.45 0.44 0.41 0.34 0.34 0.38 0.39 0.37 0.38 0.42 0.53 0.63 0.62 0.55 0.58 0.62 0.64 0.53 0.55 0.59 0.58 0.59 0.60 0.65 0.66 0.70 0.69 0.64 0.60 0.58 0.56 0.55 0.55 0.56 0.60 0.61 0.64 0.62 0.61
0.47 0.47 0.46 0.45 0.43 0.37 0.36 0.37 0.37 0.38 0.39 0.40 0.41 0.47 0.55 0.59 0.61 0.52 0.50 0.54 0.58 0.60 0.56 0.57 0.59 0.59 0.61 0.64 0.64 0.64 0.66 0.64 0.60 0.61 0.59 0.55 0.54 0.53 0.54 0.55 0.54 0.56 0.60
0.46 0.43 0.42 0.37 0.31 0.32 0.37 0.38 0.39 0.39 0.37 0.41 0.43 0.49 0.57 0.60 0.60 0.54 0.50 0.51 0.51 0.52 0.52 0.51 0.59 0.60 0.62 0.65 0.64 0.61 0.61 0.62 0.59 0.60 0.60 0.57 0.55 0.55 0.54 0.52 0.52 0.48 0.54
0.40 0.37 0.33 0.27 0.28 0.32 0.37 0.39 0.40 0.37 0.42 0.44 0.48 0.54 0.60 0.61 0.59 0.54 0.53 0.51 0.49 0.53 0.56 0.58 0.62 0.63 0.64 0.64 0.64 0.62 0.59 0.62 0.60 0.59 0.58 0.59 0.59 0.54 0.52 0.50 0.49 0.48 0.52
0.35 0.31 0.28 0.30 0.32 0.36 0.39 0.37 0.35 0.41 0.46 0.48 0.51 0.59 0.65 0.61 0.59 0.56 0.53 0.52 0.55 0.55 0.58 0.60 0.59 0.62 0.64 0.65 0.64 0.63 0.61 0.61 0.59 0.59 0.60 0.60 0.57 0.54 0.50 0.47 0.45 0.46 0.49
0.29 0.31 0.30 0.30 0.35 0.38 0.40 0.37 0.38 0.44 0.48 0.49 0.52 0.61 0.59 0.55 0.56 0.53 0.53 0.53 0.54 0.55 0.56 0.57 0.57 0.57 0.61 0.62 0.62 0.62 0.60 0.59 0.60 0.60 0.60 0.59 0.55 0.52 0.49 0.46 0.46 0.47 0.45
0.31 0.33 0.34 0.34 0.34 0.37 0.37 0.36 0.40 0.48 0.52 0.54 0.58 0.58 0.55 0.53 0.53 0.53 0.51 0.51 0.52 0.54 0.55 0.55 0.54 0.55 0.56 0.57 0.58 0.58 0.59 0.59 0.57 0.58 0.57 0.56 0.55 0.52 0.46 0.45 0.44 0.44 0.44
0.36 0.37 0.37 0.36 0.36 0.40 0.39 0.43 0.51 0.56 0.53 0.55 0.55 0.55 0.52 0.49 0.48 0.48 0.48 0.49 0.53 0.55 0.54 0.56 0.56 0.53 0.52 0.55 0.56 0.56 0.56 0.56 0.56 0.55 0.54 0.51 0.49 0.46 0.45 0.44 0.42 0.40 0.37
0.37 0.36 0.37 0.38 0.37 0.39 0.41 0.46 0.54 0.55 0.54 0.54 0.55 0.53 0.51 0.49 0.46 0.43 0.43 0.48 0.49 0.54 0.55 0.57 0.58 0.57 0.57 0.57 0.56 0.57 0.57 0.57 0.56 0.52 0.49 0.48 0.47 0.44 0.43 0.41 0.38 0.42 0.40

GFSMW_prec_pwat_219.txt.gz
Precipitable_Water
0.62 0.74 0.80 0.85 0.96 1.08 1.15 1.23 1.25 1.34 1.39 1.34 1.29 1.25 1.19 1.19 1.18 1.10 1.12 1.15 1.12 1.16 1.22 1.26 1.21 1.06 1.00 1.05 1.18 1.23 1.18 1.15 1.21 1.13 1.06 1.08 1.14 1.07 1.13 1.11 1.09 1.06 1.04
0.62 0.72 0.81 0.91 0.98 1.06 1.16 1.26 1.34 1.40 1.40 1.37 1.30 1.20 1.11 1.09 1.01 0.94 0.98 1.05 1.02 1.00 1.03 1.07 1.04 1.02 0.99 0.98 0.98 1.08 1.09 1.11 1.18 1.00 1.00 0.87 0.90 0.99 1.01 1.00 1.06 1.03 1.02
0.61 0.72 0.78 0.84 0.97 1.07 1.18 1.28 1.34 1.35 1.35 1.25 1.04 0.88 0.85 0.82 0.78 0.77 0.82 0.88 0.91 0.92 0.93 0.95 0.97 1.02 0.96 0.92 0.96 1.01 0.99 1.05 1.04 1.08 0.91 0.80 0.70 0.85 0.98 0.95 0.94 0.93 0.92
0.68 0.77 0.82 0.88 0.96 1.06 1.20 1.24 1.24 1.20 1.03 0.81 0.71 0.66 0.60 0.57 0.63 0.67 0.71 0.70 0.73 0.75 0.81 0.84 0.87 0.89 0.90 0.90 0.90 1.02 1.04 1.00 0.92 1.02 1.05 0.97 0.89 0.73 0.74 0.88 0.80 0.87 0.85
0.71 0.77 0.85 0.90 0.97 1.02 1.04 1.06 0.98 0.78 0.73 0.70 0.69 0.64 0.60 0.63 0.66 0.66 0.63 0.63 0.61 0.63 0.67 0.73 0.76 0.79 0.81 0.81 0.91 0.89 0.97 0.92 0.89 0.88 0.91 0.91 0.86 0.83 0.71 0.65 0.73 0.75 0.81
0.74 0.77 0.80 0.82 0.81 0.85 0.80 0.77 0.73 0.69 0.69 0.67 0.67 0.62 0.62 0.65 0.65 0.64 0.63 0.59 0.62 0.63 0.64 0.69 0.72 0.76 0.79 0.82 0.83 0.86 0.87 0.90 0.89 0.90 0.92 0.86 0.80 0.77 0.76 0.72 0.73 0.72 0.77
0.71 0.70 0.66 0.64 0.65 0.66 0.67 0.67 0.66 0.63 0.68 0.69 0.68 0.69 0.68 0.65 0.63 0.61 0.60 0.60 0.61 0.66 0.66 0.67 0.69 0.72 0.75 0.81 0.85 0.84 0.90 0.84 0.94 0.95 0.92 0.97 0.93 0.93 0.84 0.75 0.68 0.67 0.73
0.72 0.71 0.68 0.67 0.67 0.68 0.68 0.66 0.65 0.64 0.68 0.69 0.68 0.68 0.69 0.64 0.61 0.57 0.58 0.61 0.62 0.66 0.73 0.74 0.72 0.72 0.75 0.75 0.76 0.77 0.79 0.84 0.85 0.82 0.85 0.91 0.92 0.89 0.89 0.77 0.74 0.63 0.64
0.66 0.67 0.68 0.68 0.69 0.68 0.66 0.65 0.65 0.66 0.67 0.64 0.65 0.63 0.60 0.59 0.58 0.62 0.64 0.62 0.66 0.68 0.73 0.77 0.74 0.72 0.71 0.71 0.72 0.73 0.73 0.75 0.76 0.78 0.79 0.82 0.85 0.88 0.87 0.84 0.81 0.71 0.59
0.66 0.69 0.68 0.70 0.66 0.61 0.61 0.61 0.61 0.59 0.59 0.61 0.60 0.57 0.56 0.59 0.60 0.60 0.57 0.60 0.66 0.72 0.71 0.74 0.76 0.73 0.70 0.69 0.70 0.69 0.70 0.70 0.70 0.71 0.73 0.78 0.81 0.82 0.83 0.81 0.80 0.78 0.69
0.66 0.68 0.66 0.61 0.57 0.58 0.58 0.58 0.57 0.57 0.57 0.58 0.60 0.61 0.60 0.57 0.55 0.55 0.56 0.59 0.68 0.72 0.69 0.72 0.74 0.71 0.70 0.69 0.69 0.68 0.68 0.65 0.67 0.70 0.70 0.72 0.78 0.79 0.80 0.80 0.78 0.74 0.73
0.63 0.60 0.57 0.56 0.56 0.57 0.57 0.55 0.56 0.57 0.58 0.61 0.64 0.63 0.60 0.58 0.54 0.52 0.53 0.57 0.59 0.66 0.67 0.70 0.72 0.71 0.69 0.71 0.65 0.66 0.66 0.67 0.65 0.66 0.68 0.69 0.75 0.74 0.74 0.73 0.74 0.73 0.74
0.58 0.56 0.55 0.55 0.56 0.58 0.59 0.60 0.61 0.61 0.64 0.66 0.64 0.60 0.57 0.56 0.52 0.53 0.52 0.56 0.58 0.56 0.62 0.67 0.70 0.70 0.69 0.67 0.69 0.69 0.68 0.70 0.68 0.68 0.67 0.67 0.69 0.69 0.71 0.71 0.72 0.71 0.71
0.57 0.55 0.56 0.59 0.60 0.61 0.61 0.62 0.62 0.64 0.63 0.60 0.58 0.55 0.53 0.55 0.53 0.53 0.52 0.55 0.62 0.61 0.60 0.64 0.68 0.69 0.66 0.65 0.66 0.68 0.71 0.71 0.69 0.68 0.67 0.67 0.68 0.68 0.68 0.70 0.69 0.68 0.66
0.58 0.59 0.60 0.61 0.63 0.62 0.63 0.65 0.62 0.57 0.53 0.49 0.48 0.49 0.51 0.50 0.52 0.50 0.52 0.58 0.63 0.66 0.65 0.66 0.69 0.68 0.63 0.64 0.65 0.67 0.71 0.70 0.68 0.68 0.67 0.68 0.68 0.69 0.69 0.69 0.68 0.67 0.64
0.59 0.61 0.63 0.64 0.64 0.64 0.60 0.55 0.51 0.49 0.49 0.45 0.43 0.40 0.35 0.36 0.45 0.53 0.55 0.60 0.62 0.63 0.65 0.66 0.70 0.67 0.61 0.60 0.64 0.67 0.69 0.69 0.67 0.62 0.66 0.67 0.68 0.68 0.67 0.68 0.70 0.69 0.63
0.61 0.63 0.63 0.64 0.61 0.56 0.53 0.51 0.49 0.48 0.46 0.43 0.39 0.35 0.36 0.37 0.39 0.46 0.52 0.61 0.60 0.61 0.63 0.64 0.64 0.59 0.62 0.62 0.61 0.66 0.67 0.67 0.67 0.63 0.62 0.64 0.66 0.66 0.66 0.67 0.68 0.68 0.68
0.62 0.63 0.62 0.57 0.53 0.53 0.52 0.52 0.50 0.49 0.46 0.38 0.35 0.35 0.36 0.38 0.43 0.47 0.51 0.56 0.65 0.61 0.60 0.61 0.62 0.58 0.59 0.63 0.61 0.63 0.65 0.66 0.68 0.64 0.59 0.62 0.63 0.64 0.64 0.65 0.64 0.66 0.66
0.60 0.55 0.53 0.52 0.52 0.51 0.49 0.49 0.47 0.45 0.38 0.35 0.36 0.38 0.41 0.42 0.46 0.47 0.50 0.57 0.60 0.59 0.55 0.53 0.56 0.55 0.55 0.60 0.62 0.61 0.60 0.60 0.64 0.64 0.58 0.57 0.59 0.61 0.64 0.62 0.61 0.61 0.63
0.52 0.51 0.51 0.50 0.46 0.42 0.43 0.42 0.38 0.37 0.35 0.36 0.38 0.44 0.47 0.45 0.47 0.50 0.56 0.64 0.67 0.56 0.52 0.48 0.48 0.51 0.50 0.55 0.61 0.61 0.58 0.57 0.58 0.63 0.60 0.60 0.57 0.57 0.57 0.58 0.58 0.56 0.58
0.48 0.46 0.45 0.42 0.40 0.41 0.39 0.35 0.36 0.34 0.37 0.41 0.43 0.45 0.47 0.50 0.52 0.59 0.61 0.60 0.58 0.54 0.50 0.49 0.52 0.55 0.58 0.59 0.61 0.61 0.58 0.57 0.56 0.58 0.59 0.60 0.59 0.56 0.56 0.55 0.55 0.57 0.59
0.44 0.43 0.42 0.42 0.42 0.41 0.39 0.35 0.34 0.35 0.38 0.39 0.42 0.47 0.51 0.53 0.55 0.60 0.61 0.57 0.54 0.50 0.50 0.51 0.53 0.58 0.61 0.62 0.62 0.62 0.61 0.60 0.56 0.56 0.60 0.61 0.60 0.60 0.57 0.53 0.54 0.54 0.56
0.43 0.46 0.44 0.43 0.43 0.41 0.39 0.34 0.34 0.38 0.37 0.40 0.45 0.50 0.56 0.57 0.57 0.57 0.55 0.54 0.52 0.49 0.48 0.50 0.53 0.56 0.59 0.62 0.63 0.63 0.62 0.61 0.59 0.60 0.61 0.62 0.61 0.59 0.55 0.52 0.50 0.49 0.49
0.47 0.49 0.48 0.42 0.38 0.40 0.41 0.41 0.40 0.40 0.41 0.44 0.48 0.52 0.52 0.52 0.53 0.54 0.53 0.50 0.47 0.47 0.49 0.50 0.52 0.54 0.55 0.58 0.60 0.60 0.60 0.59 0.59 0.58 0.58 0.58 0.58 0.58 0.55 0.51 0.48 0.47 0.47
0.50 0.47 0.42 0.39 0.37 0.39 0.40 0.41 0.42 0.42 0.42 0.47 0.49 0.51 0.53 0.50 0.49 0.50 0.50 0.48 0.49 0.49 0.49 0.52 0.53 0.52 0.51 0.55 0.58 0.58 0.56 0.56 0.57 0.55 0.54 0.54 0.53 0.53 0.51 0.49 0.46 0.44 0.44
0.45 0.42 0.39 0.38 0.38 0.39 0.39 0.40 0.42 0.45 0.45 0.46 0.49 0.51 0.53 0.51 0.50 0.47 0.44 0.48 0.46 0.48 0.51 0.53 0.54 0.55 0.57 0.57 0.57 0.57 0.56 0.56 0.55 0.53 0.51 0.50 0.51 0.50 0.49 0.46 0.43 0.43 0.42

GFSMW_prec_pwat_225.txt.gz
Precipitable_Water
0.52 0.60 0.67 0.75 0.78 0.94 1.02 1.08 1.12 1.24 1.33 1.31 1.31 1.35 1.31 1.37 1.45 1.51 1.40 1.21 1.14 1.08 1.02 1.03 1.00 1.01 0.96 0.99 1.09 1.09 1.01 1.00 0.93 0.85 0.84 0.87 0.97 1.01 1.06 1.12 1.15 1.16 1.17
0.48 0.55 0.63 0.70 0.75 0.77 0.90 1.05 1.15 1.25 1.36 1.39 1.41 1.42 1.38 1.45 1.44 1.36 1.19 1.06 0.85 0.89 0.94 0.95 0.92 0.95 0.92 0.90 0.92 0.91 0.81 0.87 0.91 0.75 0.78 0.61 0.69 0.89 0.93 1.04 1.09 1.10 1.16
0.45 0.53 0.59 0.68 0.77 0.81 0.88 0.99 1.13 1.25 1.38 1.44 1.46 1.45 1.46 1.37 1.29 0.98 0.82 0.78 0.83 0.88 0.94 0.94 0.88 0.86 0.86 0.81 0.82 0.85 0.82 0.69 0.78 0.86 0.79 0.61 0.53 0.73 0.81 0.93 0.98 1.04 1.09
0.54 0.60 0.65 0.70 0.78 0.86 0.98 1.04 1.11 1.25 1.39 1.47 1.45 1.39 1.27 1.07 0.75 0.65 0.67 0.69 0.76 0.83 0.83 0.79 0.76 0.72 0.70 0.67 0.74 0.81 0.76 0.75 0.68 0.82 0.86 0.82 0.80 0.69 0.61 0.79 0.93 0.98 0.99
0.57 0.61 0.69 0.77 0.87 0.97 1.02 1.10 1.20 1.31 1.40 1.46 1.42 1.33 1.10 0.73 0.63 0.62 0.61 0.67 0.76 0.81 0.80 0.78 0.76 0.68 0.66 0.67 0.69 0.71 0.72 0.75 0.71 0.72 0.74 0.81 0.75 0.77 0.73 0.66 0.74 0.86 0.92
0.65 0.71 0.78 0.83 0.86 0.99 1.07 1.15 1.21 1.29 1.37 1.37 1.29 0.96 0.67 0.60 0.58 0.60 0.63 0.70 0.73 0.78 0.78 0.76 0.70 0.67 0.64 0.64 0.69 0.73 0.73 0.72 0.71 0.73 0.80 0.76 0.71 0.64 0.69 0.67 0.64 0.66 0.81
0.66 0.71 0.75 0.79 0.84 0.89 1.00 1.11 1.19 1.20 1.23 1.01 0.82 0.68 0.61 0.61 0.60 0.63 0.66 0.68 0.70 0.70 0.70 0.69 0.63 0.63 0.65 0.65 0.67 0.67 0.69 0.73 0.73 0.76 0.75 0.78 0.81 0.79 0.76 0.74 0.72 0.69 0.80
0.68 0.74 0.80 0.85 0.88 0.95 1.01 1.07 1.09 0.94 0.83 0.75 0.66 0.65 0.66 0.67 0.68 0.68 0.69 0.70 0.71 0.71 0.73 0.68 0.64 0.63 0.64 0.63 0.67 0.67 0.69 0.71 0.72 0.71 0.71 0.71 0.73 0.78 0.77 0.76 0.69 0.64 0.70
0.65 0.73 0.79 0.84 0.88 0.89 0.90 0.86 0.78 0.72 0.69 0.66 0.68 0.69 0.71 0.72 0.70 0.72 0.74 0.75 0.74 0.72 0.67 0.65 0.62 0.61 0.65 0.67 0.69 0.67 0.67 0.69 0.69 0.68 0.70 0.69 0.71 0.73 0.76 0.75 0.73 0.67 0.59
0.65 0.71 0.76 0.78 0.81 0.81 0.77 0.75 0.72 0.68 0.69 0.71 0.72 0.72 0.74 0.73 0.74 0.73 0.72 0.74 0.74 0.69 0.65 0.62 0.57 0.59 0.65 0.71 0.70 0.70 0.71 0.68 0.67 0.69 0.68 0.69 0.70 0.69 0.71 0.72 0.70 0.66 0.63
0.64 0.68 0.71 0.71 0.72 0.74 0.73 0.72 0.72 0.73 0.73 0.73 0.72 0.71 0.70 0.69 0.73 0.75 0.76 0.74 0.69 0.68 0.65 0.60 0.57 0.59 0.62 0.67 0.67 0.68 0.69 0.66 0.65 0.67 0.66 0.66 0.68 0.65 0.67 0.72 0.72 0.68 0.65
0.66 0.70 0.73 0.74 0.73 0.73 0.74 0.75 0.78 0.75 0.72 0.68 0.66 0.65 0.68 0.74 0.72 0.74 0.72 0.69 0.65 0.67 0.66 0.63 0.60 0.61 0.61 0.62 0.62 0.61 0.64 0.65 0.64 0.65 0.68 0.65 0.63 0.62 0.68 0.70 0.69 0.69 0.71
0.67 0.70 0.75 0.78 0.78 0.77 0.76 0.77 0.76 0.68 0.67 0.67 0.66 0.67 0.69 0.69 0.71 0.68 0.63 0.62 0.61 0.60 0.58 0.60 0.60 0.62 0.65 0.69 0.67 0.66 0.72 0.70 0.68 0.68 0.63 0.60 0.60 0.63 0.67 0.68 0.68 0.71 0.71
0.69 0.71 0.73 0.78 0.80 0.80 0.80 0.79 0.75 0.70 0.69 0.67 0.68 0.68 0.66 0.69 0.62 0.55 0.54 0.53 0.50 0.46 0.46 0.51 0.54 0.61 0.64 0.68 0.70 0.70 0.70 0.70 0.69 0.68 0.65 0.65 0.64 0.64 0.65 0.65 0.66 0.67 0.66
0.68 0.68 0.70 0.73 0.79 0.80 0.81 0.80 0.73 0.69 0.68 0.66 0.63 0.59 0.64 0.61 0.54 0.54 0.53 0.49 0.45 0.43 0.44 0.46 0.53 0.61 0.63 0.65 0.69 0.71 0.70 0.70 0.65 0.65 0.63 0.62 0.64 0.68 0.67 0.65 0.64 0.65 0.62
0.70 0.73 0.75 0.77 0.77 0.80 0.81 0.76 0.69 0.66 0.65 0.62 0.62 0.63 0.60 0.55 0.55 0.54 0.51 0.46 0.44 0.44 0.47 0.48 0.48 0.53 0.58 0.60 0.70 0.71 0.71 0.70 0.68 0.61 0.58 0.61 0.65 0.68 0.67 0.66 0.65 0.66 0.61
0.70 0.67 0.66 0.70 0.72 0.74 0.72 0.67 0.64 0.65 0.64 0.63 0.62 0.59 0.57 0.57 0.55 0.52 0.48 0.45 0.44 0.44 0.44 0.48 0.52 0.52 0.54 0.59 0.68 0.70 0.70 0.68 0.62 0.58 0.56 0.59 0.66 0.67 0.66 0.66 0.65 0.64 0.65
0.71 0.70 0.69 0.70 0.70 0.69 0.68 0.67 0.67 0.66 0.64 0.61 0.58 0.58 0.58 0.54 0.51 0.48 0.44 0.43 0.45 0.46 0.48 0.50 0.54 0.54 0.57 0.61 0.67 0.72 0.70 0.64 0.58 0.57 0.57 0.60 0.62 0.66 0.65 0.64 0.61 0.61 0.63
0.70 0.72 0.71 0.70 0.68 0.67 0.66 0.64 0.63 0.62 0.60 0.57 0.55 0.55 0.54 0.51 0.48 0.43 0.42 0.45 0.48 0.51 0.52 0.53 0.60 0.58 0.57 0.61 0.65 0.69 0.65 0.55 0.54 0.53 0.58 0.59 0.58 0.64 0.65 0.62 0.59 0.59 0.60
0.66 0.66 0.67 0.67 0.66 0.63 0.63 0.60 0.56 0.55 0.51 0.51 0.52 0.54 0.52 0.48 0.43 0.44 0.44 0.49 0.52 0.53 0.54 0.56 0.62 0.62 0.63 0.64 0.62 0.58 0.54 0.50 0.49 0.50 0.57 0.59 0.57 0.62 0.63 0.62 0.59 0.56 0.58
0.65 0.65 0.64 0.60 0.59 0.59 0.55 0.51 0.49 0.46 0.51 0.56 0.55 0.51 0.46 0.45 0.45 0.45 0.47 0.47 0.48 0.52 0.57 0.57 0.57 0.59 0.60 0.59 0.57 0.56 0.54 0.50 0.47 0.48 0.53 0.56 0.57 0.60 0.63 0.63 0.62 0.60 0.62
0.61 0.59 0.56 0.53 0.53 0.52 0.50 0.47 0.49 0.55 0.57 0.53 0.48 0.45 0.45 0.46 0.47 0.47 0.48 0.49 0.48 0.48 0.50 0.54 0.53 0.53 0.55 0.56 0.58 0.59 0.59 0.58 0.54 0.54 0.57 0.57 0.56 0.58 0.60 0.62 0.63 0.63 0.62
0.55 0.54 0.51 0.51 0.52 0.53 0.53 0.50 0.53 0.57 0.55 0.50 0.46 0.45 0.46 0.46 0.46 0.46 0.46 0.46 0.46 0.46 0.48 0.49 0.49 0.50 0.53 0.54 0.58 0.59 0.60 0.62 0.59 0.60 0.58 0.58 0.56 0.55 0.57 0.60 0.61 0.61 0.59
0.52 0.52 0.50 0.49 0.50 0.54 0.57 0.57 0.56 0.53 0.50 0.47 0.45 0.45 0.43 0.44 0.44 0.45 0.47 0.45 0.44 0.44 0.46 0.46 0.47 0.49 0.49 0.51 0.54 0.57 0.60 0.61 0.60 0.60 0.59 0.57 0.56 0.55 0.55 0.56 0.58 0.59 0.59
0.52 0.51 0.50 0.51 0.53 0.57 0.55 0.53 0.52 0.51 0.47 0.44 0.44 0.43 0.43 0.45 0.44 0.45 0.46 0.46 0.47 0.47 0.46 0.46 0.47 0.48 0.47 0.51 0.56 0.57 0.57 0.58 0.58 0.57 0.56 0.54 0.52 0.50 0.51 0.52 0.55 0.55 0.56
0.51 0.52 0.53 0.54 0.54 0.53 0.52 0.52 0.51 0.47 0.43 0.42 0.42 0.42 0.44 0.44 0.44 0.46 0.48 0.52 0.51 0.51 0.51 0.50 0.48 0.50 0.52 0.53 0.55 0.56 0.57 0.57 0.57 0.53 0.51 0.50 0.50 0.50 0.50 0.49 0.50 0.53 0.53

GFSMW_prec_pwat_228.txt.gz
Precipitable_Water
0.51 0.60 0.74 0.85 0.96 1.04 1.08 1.14 1.19 1.24 1.27 1.25 1.24 1.26 1.27 1.37 1.40 1.44 1.50 1.52 1.52 1.24 1.08 1.00 1.02 1.05 0.99 0.98 1.05 0.97 0.91 0.97 0.98 0.90 0.89 0.90 0.89 0.88 0.90 0.98 1.00 1.09 1.12
0.50 0.53 0.61 0.69 0.76 0.84 1.02 1.11 1.16 1.23 1.24 1.28 1.36 1.37 1.39 1.45 1.49 1.53 1.55 1.48 1.31 1.06 0.88 0.93 0.95 0.99 0.96 0.96 0.95 0.88 0.78 0.89 0.91 0.74 0.69 0.58 0.63 0.74 0.82 0.86 0.87 0.96 1.07
0.49 0.50 0.56 0.64 0.72 0.77 0.81 0.95 1.09 1.18 1.24 1.34 1.39 1.44 1.50 1.50 1.48 1.49 1.42 1.35 0.97 0.87 0.86 0.93 0.95 0.93 0.86 0.77 0.74 0.76 0.78 0.73 0.80 0.85 0.70 0.55 0.48 0.66 0.83 0.79 0.85 0.91 0.97
0.56 0.57 0.61 0.65 0.73 0.81 0.91 0.96 1.08 1.18 1.26 1.37 1.34 1.37 1.39 1.38 1.44 1.40 1.31 0.91 0.79 0.82 0.84 0.86 0.84 0.81 0.80 0.71 0.66 0.69 0.71 0.77 0.72 0.77 0.79 0.76 0.76 0.61 0.55 0.68 0.76 0.91 0.91
0.56 0.60 0.67 0.74 0.82 0.93 0.96 1.07 1.14 1.17 1.26 1.38 1.44 1.48 1.47 1.47 1.38 1.15 0.83 0.66 0.74 0.77 0.80 0.80 0.80 0.80 0.78 0.71 0.69 0.68 0.71 0.73 0.71 0.72 0.76 0.74 0.74 0.73 0.66 0.52 0.61 0.74 0.84
0.60 0.65 0.73 0.81 0.86 0.97 1.05 1.13 1.16 1.19 1.28 1.38 1.47 1.45 1.42 1.25 0.97 0.77 0.61 0.66 0.72 0.77 0.79 0.80 0.80 0.82 0.78 0.72 0.69 0.70 0.71 0.74 0.77 0.76 0.76 0.74 0.66 0.64 0.66 0.66 0.69 0.67 0.70
0.62 0.66 0.70 0.75 0.80 0.86 0.95 1.04 1.11 1.16 1.31 1.36 1.43 1.43 1.29 0.98 0.76 0.65 0.66 0.69 0.70 0.74 0.77 0.79 0.80 0.78 0.76 0.75 0.74 0.74 0.72 0.72 0.71 0.72 0.73 0.80 0.78 0.83 0.77 0.67 0.71 0.62 0.69
0.65 0.69 0.73 0.75 0.80 0.86 0.96 1.03 1.09 1.15 1.24 1.31 1.29 1.13 0.92 0.78 0.68 0.70 0.71 0.71 0.72 0.75 0.80 0.84 0.83 0.76 0.75 0.74 0.73 0.73 0.73 0.73 0.71 0.71 0.71 0.71 0.73 0.76 0.77 0.72 0.66 0.57 0.57
0.62 0.68 0.75 0.80 0.84 0.91 0.99 1.06 1.12 1.18 1.21 1.11 0.96 0.85 0.78 0.73 0.71 0.74 0.75 0.74 0.77 0.79 0.84 0.85 0.77 0.75 0.73 0.70 0.68 0.67 0.68 0.71 0.71 0.70 0.71 0.70 0.72 0.74 0.75 0.76 0.73 0.63 0.48
0.62 0.69 0.77 0.82 0.88 0.95 1.03 1.11 1.16 1.03 0.96 0.90 0.84 0.79 0.79 0.79 0.78 0.78 0.77 0.77 0.81 0.84 0.83 0.77 0.73 0.71 0.70 0.68 0.65 0.62 0.67 0.68 0.68 0.71 0.71 0.71 0.71 0.73 0.74 0.75 0.75 0.71 0.62
0.64 0.67 0.73 0.81 0.86 0.93 0.97 0.98 0.96 0.87 0.83 0.81 0.81 0.82 0.82 0.81 0.80 0.78 0.78 0.83 0.83 0.85 0.80 0.73 0.71 0.68 0.69 0.68 0.65 0.61 0.64 0.63 0.64 0.69 0.70 0.71 0.74 0.71 0.72 0.74 0.73 0.69 0.67
0.65 0.68 0.72 0.79 0.80 0.83 0.87 0.86 0.87 0.83 0.83 0.82 0.81 0.79 0.78 0.78 0.76 0.75 0.78 0.81 0.82 0.79 0.69 0.71 0.67 0.64 0.63 0.64 0.65 0.64 0.64 0.64 0.67 0.68 0.73 0.72 0.73 0.70 0.73 0.70 0.63 0.64 0.70
0.66 0.69 0.73 0.76 0.79 0.79 0.79 0.78 0.81 0.82 0.83 0.81 0.78 0.77 0.77 0.75 0.74 0.77 0.78 0.76 0.74 0.61 0.59 0.55 0.52 0.50 0.50 0.52 0.59 0.64 0.66 0.70 0.70 0.72 0.74 0.72 0.73 0.69 0.63 0.63 0.63 0.65 0.69
0.68 0.68 0.72 0.77 0.81 0.82 0.82 0.81 0.83 0.84 0.83 0.82 0.79 0.78 0.75 0.74 0.74 0.73 0.69 0.70 0.57 0.56 0.54 0.50 0.48 0.48 0.50 0.50 0.55 0.62 0.66 0.70 0.71 0.72 0.71 0.72 0.69 0.65 0.61 0.63 0.63 0.67 0.65
0.70 0.70 0.70 0.72 0.75 0.80 0.84 0.86 0.87 0.87 0.86 0.83 0.80 0.77 0.75 0.69 0.66 0.66 0.71 0.61 0.59 0.56 0.52 0.49 0.49 0.50 0.53 0.50 0.52 0.61 0.64 0.67 0.70 0.72 0.72 0.72 0.69 0.63 0.60 0.59 0.63 0.65 0.63
0.73 0.71 0.71 0.72 0.73 0.79 0.83 0.83 0.83 0.88 0.87 0.83 0.77 0.72 0.66 0.64 0.66 0.71 0.60 0.59 0.56 0.55 0.52 0.50 0.50 0.50 0.51 0.53 0.55 0.55 0.59 0.62 0.68 0.67 0.69 0.68 0.64 0.60 0.59 0.65 0.68 0.66 0.60
0.73 0.74 0.75 0.75 0.74 0.74 0.79 0.80 0.84 0.87 0.81 0.76 0.71 0.66 0.63 0.67 0.70 0.62 0.59 0.55 0.54 0.53 0.51 0.51 0.52 0.52 0.58 0.56 0.56 0.57 0.55 0.59 0.68 0.67 0.68 0.60 0.59 0.60 0.62 0.65 0.67 0.66 0.65
0.76 0.77 0.78 0.76 0.75 0.75 0.78 0.80 0.80 0.77 0.73 0.70 0.66 0.65 0.67 0.67 0.63 0.58 0.56 0.55 0.53 0.49 0.50 0.52 0.53 0.55 0.57 0.59 0.59 0.59 0.59 0.62 0.67 0.68 0.64 0.57 0.56 0.59 0.59 0.63 0.64 0.62 0.62
0.75 0.73 0.74 0.74 0.75 0.74 0.75 0.72 0.70 0.68 0.65 0.63 0.62 0.64 0.65 0.59 0.57 0.56 0.55 0.52 0.47 0.48 0.51 0.51 0.53 0.56 0.58 0.62 0.62 0.60 0.58 0.61 0.63 0.65 0.62 0.56 0.52 0.59 0.59 0.60 0.60 0.59 0.59
0.68 0.68 0.70 0.70 0.70 0.71 0.70 0.65 0.63 0.63 0.61 0.61 0.62 0.62 0.59 0.56 0.54 0.55 0.52 0.51 0.49 0.48 0.47 0.48 0.53 0.58 0.58 0.62 0.63 0.63 0.60 0.54 0.55 0.59 0.59 0.55 0.53 0.59 0.57 0.58 0.59 0.56 0.57
0.68 0.69 0.69 0.68 0.69 0.69 0.67 0.64 0.62 0.58 0.60 0.60 0.57 0.57 0.57 0.55 0.56 0.52 0.52 0.49 0.47 0.49 0.46 0.46 0.50 0.55 0.57 0.56 0.58 0.59 0.56 0.52 0.50 0.49 0.50 0.51 0.54 0.56 0.57 0.59 0.61 0.59 0.61
0.66 0.67 0.65 0.64 0.66 0.65 0.62 0.58 0.55 0.57 0.57 0.57 0.56 0.56 0.58 0.57 0.52 0.50 0.49 0.47 0.45 0.45 0.43 0.44 0.45 0.51 0.54 0.55 0.56 0.56 0.55 0.57 0.54 0.54 0.55 0.55 0.58 0.57 0.58 0.58 0.62 0.62 0.61
0.67 0.65 0.61 0.61 0.61 0.59 0.57 0.53 0.55 0.59 0.59 0.57 0.56 0.57 0.56 0.51 0.50 0.48 0.45 0.43 0.44 0.43 0.41 0.41 0.41 0.45 0.53 0.55 0.56 0.56 0.57 0.58 0.56 0.58 0.57 0.58 0.59 0.57 0.57 0.57 0.60 0.61 0.59
0.63 0.60 0.59 0.57 0.56 0.57 0.57 0.60 0.61 0.61 0.58 0.56 0.56 0.54 0.50 0.48 0.48 0.47 0.44 0.44 0.43 0.42 0.40 0.39 0.40 0.43 0.49 0.52 0.55 0.54 0.54 0.57 0.58 0.60 0.60 0.60 0.58 0.56 0.56 0.55 0.58 0.59 0.58
0.60 0.58 0.56 0.55 0.55 0.58 0.60 0.62 0.61 0.60 0.56 0.55 0.53 0.51 0.48 0.46 0.45 0.46 0.45 0.45 0.49 0.48 0.43 0.42 0.42 0.42 0.44 0.52 0.55 0.54 0.54 0.56 0.57 0.57 0.57 0.55 0.54 0.52 0.52 0.52 0.54 0.56 0.57
0.60 0.58 0.57 0.55 0.57 0.59 0.59 0.60 0.62 0.59 0.54 0.50 0.47 0.46 0.46 0.45 0.44 0.43 0.43 0.50 0.52 0.51 0.50 0.49 0.46 0.46 0.48 0.52 0.54 0.54 0.55 0.56 0.56 0.54 0.51 0.51 0.52 0.50 0.50 0.50 0.50 0.53 0.54